Retour au catalogue

STARLINK-4582

ActifCommunicationsVLEO
NORAD 53569·PAYLOAD·🇺🇸 United States

Lancé Aug 19, 2022 depuis Cape Canaveral Space Force Station

Loading…

Prochains Passages (prochaines 24 heures)

TLE

FraisSource: CelesTrak SupGP

Époque: Sep 15, 2026, 02:17 UTC

1 53569C 22101AU  26258.09562500 -.00027748  00000+0 -81975-3 0  2584
2 53569  53.1569 269.1051 0001154  84.2275 152.5245 15.34407715    14

Suivez STARLINK-4582 en temps réel avec AllMySat

Download on the App Store